Location: Complexul Astronomic Baia Mare
(47.6577°N, 23.5639°E)
Time: 06:51:50
(UTC+03:00)

ISS - Pass Details

Date: 07 May 2017
Orbit: 402 x 408 km, 51.6° (Epoch: 29 May)

Event Time Altitude Azimuth Distance (km) Brightness Sun altitude
Exits shadow 04:50:28 - 183° (S) 1,617 -1.2 -10.5°
Reaches altitude 10° 04:51:02 10° 177° (S) 1,456 -1.4 -10.4°
Maximum altitude 04:53:07 16° 137° (SE) 1,153 -1.5 -10.2°
Drops below altitude 10° 04:55:12 10° 97° (E) 1,460 -0.3 -9.9°
Sets 04:57:50 0° 75° (ENE) 2,322 1.4 -9.6°
